Regional Weather Roundup
Issued by NWS

Home | Current Version | Previous Version | Graphics & Text | Print | Product List | Glossary Off
Versions: 1 2 3 4 5 6 7 8 9 10 11 12 13 14 15 16 17 18 19 20 21 22 23 24 25 26 27 28 29 30 31 32 33 34 35 36 37 38 39 40 41 42 43 44 45 46 47 48 49 50

000
ASUS45 KABQ 171310
RWRNM
NEW MEXICO REGIONAL WEATHER ROUNDUP
NATIONAL WEATHER SERVICE ALBUQUERQUE NM
700 AM MDT THU AUG 17 2017

NOTE: "FAIR" MEANS FEW OR NO CLOUDS BELOW 12,000 FEET AGL WITH NO
       SIGNIFICANT WEATHER OR OBSTRUCTIONS TO VISION.

      THIS PRODUCT IS RELEASED AS TWO VERSIONS.  ONE VERSION NEAR
      THE TOP OF THE HOUR CONTAINING PRELIMINARY DATA FROM ALBUQUERQUE
      AND OTHER STATIONS.  A FINAL VERSION WITH ADDITIONAL DATA IS
      ISSUED ABOUT 10 MINUTES AFTER THE HOUR.

NMZ501-503-504-510>518-171400-
NORTHWEST PLATEAU/NORTHCENTRAL MOUNTAINS

CITY           SKY/WX    TMP DP  RH WIND       PRES   REMARKS
FARMINGTON     FAIR      55  36  48 E7        30.21R
LOS ALAMOS     CLOUDY    63  35  35 SW7       30.34R
SANTA FE       FAIR      57  39  51 NE5       30.28R
TAOS           MOCLDY    53  38  56 N6        30.36R
ANGEL FIRE     CLOUDY    46  43  91 CALM      30.43S

$$
NMZ402-403-502-505>509-171400-
WESTCENTRAL MOUNTAINS/SOUTHWEST MOUNTAINS

CITY           SKY/WX    TMP DP  RH WIND       PRES   REMARKS
GALLUP         FAIR      49  36  61 NE6       30.31R
GRANTS         FAIR      44  28  53 CALM      30.33R
SILVER CITY    FAIR      58  39  50 NW9       30.22R

$$
NMZ407-409-411-412-171400-
SOUTHERN DESERTS

CITY           SKY/WX    TMP DP  RH WIND       PRES   REMARKS
DEMING         FAIR      59  46  62 W6        30.15R
LAS CRUCES     FAIR      63  42  45 CALM      30.15R
HOLLOMAN AFB   FAIR      62  50  64 N6        30.14R
ALAMOGORDO     FAIR      66  46  48 NW3       30.14R
T OR C         FAIR      68  39  34 W9        30.17R

$$
NMZ519>523-171400-
CENTRAL VALLEYS/CENTRAL HIGHLANDS

CITY           SKY/WX    TMP DP  RH WIND       PRES   REMARKS
ALBUQUERQUE    FAIR      63  46  54 CALM      30.22R
DOUBLE EAGLE   PTCLDY    55  41  58 CALM      30.25R
MORIARTY ARPT  MOCLDY    53  49  87 CALM      30.29R
CLINES CORNERS CLOUDY    57  48  72 E6        30.33R
BELEN          FAIR      61  40  45 CALM      30.21R
SOCORRO        FAIR      62  42  48 W3        30.18R

$$
NMZ524>526-539-540-171400-
SOUTHCENTRAL MOUNTAINS

CITY           SKY/WX    TMP DP  RH WIND       PRES   REMARKS
RUIDOSO        FAIR      55  41  58 W7        30.34R

$$
NMZ527>531-171400-
NORTHEAST HIGHLANDS/NORTHEAST PLAINS

CITY           SKY/WX    TMP DP  RH WIND       PRES   REMARKS
LAS VEGAS      MOCLDY    52  47  83 NE6       30.33R
RATON          FAIR      57  54  89 N5        30.30R
CLAYTON        FAIR      62  56  80 CALM      30.23R

$$
NMZ532>537-171400-
EASTCENTRAL PLAINS

CITY           SKY/WX    TMP DP  RH WIND       PRES   REMARKS
SANTA ROSA     FAIR      64  56  75 NE7       30.19R
TUCUMCARI      FAIR      65  59  81 N6        30.16R
CANNON AFB     FAIR      66  66 100 E5        30.19R
CLOVIS AIRPORT FAIR      64  61  88 E5        30.18R

$$
NMZ028-029-538-171400-
SOUTHEAST PLAINS

CITY           SKY/WX    TMP DP  RH WIND       PRES   REMARKS
ROSWELL        FAIR      65  57  75 SW5       30.10R
ARTESIA        FAIR      68  55  64 CALM      30.11R
CARLSBAD       FAIR      67  66  97 NW5       30.07R
HOBBS          CLEAR     68  66  94 NE8       30.12R


$$



USA.gov is the U.S. government's official web portal to all federal, state and local government web resources and services.